Location: Ammerl�gen
(47.2167°N, 9.6000°E)
Time: 13:47:40
(UTC+00:00)

Cosmos 676 Rocket - Pass Details

Date: 07 August 2021
Orbit: 755 x 783 km, 74.0° (Epoch: 26 September)

Event Time Altitude Azimuth Distance (km) Brightness Sun altitude
Exits shadow 00:05:50 49° 112° (ESE) 1,010 4.4 -25.8°
Maximum altitude 00:06:02 49° 105° (ESE) 1,007 4.5 -25.8°
Drops below altitude 10° 00:11:09 10° 32° (NNE) 2,346 7.4 -25.6°
Sets 00:13:36 0° 27° (NNE) 3,275 8.5 -25.5°
